Weather History for Baltimore Martin, MD

Change the Weather History Date:

Monday, July 8, 2013

  Actual Average Record
Temperature  
Mean Temperature 80 °F -  
Max Temperature 86 °F 82 °F 95 °F (2007)
Min Temperature 73 °F 66 °F 55 °F (2000)
Cooling Degree Days 14    
Growing Degree Days 30 (Base 50)    
Moisture  
Dew Point 71 °F    
Average Humidity 81    
Maximum Humidity 94    
Minimum Humidity 51    
Precipitation  
Precipitation 0.00 in - - ()
Sea Level Pressure  
Sea Level Pressure 30.08 in    
Wind  
Wind Speed 3 mph (SW)    
Max Wind Speed 8 mph    
Max Gust Speed -    
Visibility 9 miles    
Events Rain    
Averages and records for this station are not official NWS values.
T = Trace of Precipitation, MM = Missing Value Source: NWS Daily Summary

Daily Weather History Graph

Daily Weather History Graph

Search for Another Location

Airport:

Trip Planner

Search our weather history database for the weather conditions in past years. The results will help you decide how hot, cold, wet, or windy it might be!

Date:

Astronomy

Jul. 08, 2013 Rise Set
Actual Time 5:46 AM EDT 8:34 PM EDT
Civil Twilight 5:14 AM EDT 9:06 PM EDT
Nautical Twilight 4:34 AM EDT 9:46 PM EDT
Astronomical Twilight 3:49 AM EDT 10:31 PM EDT
Moon 6:13 AM EDT (7/8) 8:36 PM EDT (7/8)
Length of Visible Light 15h 51m
Length of Day
14h 47m
New Moon, 0% of the Moon is Illuminated
Jul 8
New Moon
Jul 15
First Quarter
Jul 22
Full
Jul 29
Last Quarter
Aug 6
New

Hourly Weather History & Observations

Time (EDT) Temp. Heat Index Dew Point Humidity Pressure Visibility Wind Dir Wind Speed Gust Speed Precip Events Conditions
12:06 AM 73.4 °F - 69.8 °F 88% 30.07 in 10.0 mi West 4.6 mph - N/A   Clear
12:24 AM 73.4 °F - 69.8 °F 88% 30.07 in 10.0 mi Calm Calm - N/A   Clear
12:45 AM 75.2 °F - 69.8 °F 83% 30.06 in 10.0 mi Calm Calm - N/A   Clear
1:06 AM 73.4 °F - 69.8 °F 88% 30.07 in 10.0 mi West 3.5 mph - N/A   Clear
1:24 AM 73.4 °F - 69.8 °F 88% 30.06 in 10.0 mi WSW 3.5 mph - N/A   Clear
1:45 AM 73.4 °F - 69.8 °F 88% 30.06 in 10.0 mi Calm Calm - N/A   Clear
2:06 AM 73.4 °F - 69.8 °F 88% 30.06 in 10.0 mi WSW 3.5 mph - N/A   Clear
2:27 AM 73.4 °F - 69.8 °F 88% 30.07 in 10.0 mi Calm Calm - N/A   Clear
2:45 AM 73.4 °F - 69.8 °F 88% 30.07 in 10.0 mi Calm Calm - N/A   Clear
3:06 AM 73.4 °F - 69.8 °F 88% 30.07 in 10.0 mi Calm Calm - N/A   Clear
3:27 AM 73.4 °F - 69.8 °F 88% 30.07 in 10.0 mi Calm Calm - N/A   Clear
3:45 AM 73.4 °F - 71.6 °F 94% 30.06 in 10.0 mi Calm Calm - N/A   Clear
4:06 AM 73.4 °F - 69.8 °F 88% 30.07 in 10.0 mi Calm Calm - N/A   Scattered Clouds
4:27 AM 73.4 °F - 69.8 °F 88% 30.07 in 10.0 mi SSW 3.5 mph - N/A   Scattered Clouds
4:45 AM 73.4 °F - 71.6 °F 94% 30.08 in 10.0 mi South 4.6 mph - N/A   Light Drizzle
5:06 AM 73.4 °F - 71.6 °F 94% 30.08 in 10.0 mi SW 3.5 mph - N/A   Scattered Clouds
5:27 AM 73.4 °F - 71.6 °F 94% 30.08 in 10.0 mi WSW 4.6 mph - N/A Rain Light Rain
5:30 AM 73.4 °F - 71.6 °F 94% 30.07 in 10.0 mi WSW 3.5 mph - N/A Rain Light Rain
5:45 AM 75.2 °F - 71.6 °F 89% 30.08 in 7.0 mi WSW 3.5 mph - N/A   Mostly Cloudy
6:50 AM 75.2 °F - 71.6 °F 89% 30.09 in 7.0 mi SW 3.5 mph - N/A   Mostly Cloudy
7:50 AM 75.2 °F - 73.4 °F 94% 30.10 in 7.0 mi SW 3.5 mph - N/A   Mostly Cloudy
8:50 AM 78.8 °F - 71.6 °F 78% 30.10 in 7.0 mi West 5.8 mph - N/A   Scattered Clouds
9:45 AM 80.6 °F 84.6 °F 71.6 °F 74% 30.10 in 7.0 mi SSW 4.6 mph - N/A   Scattered Clouds
10:50 AM 82.4 °F 87.2 °F 71.6 °F 70% 30.10 in 7.0 mi WSW 4.6 mph - N/A   Mostly Cloudy
11:45 AM 82.4 °F 87.2 °F 71.6 °F 70% 30.10 in 7.0 mi WNW 4.6 mph - N/A   Mostly Cloudy
1:55 PM 86.0 °F 90.4 °F 69.8 °F 58% 30.07 in 10.0 mi WSW 6.9 mph - N/A   Mostly Cloudy
2:50 PM 86.0 °F 89.4 °F 68.0 °F 55% 30.07 in 10.0 mi WSW 6.9 mph - N/A   Mostly Cloudy
3:55 PM 86.0 °F 88.2 °F 66.2 °F 51% 30.05 in 10.0 mi WSW 6.9 mph - N/A   Mostly Cloudy
4:45 PM 84.2 °F 88.4 °F 69.8 °F 62% 30.05 in 10.0 mi WNW 3.5 mph - N/A   Mostly Cloudy
5:50 PM 82.4 °F 87.2 °F 71.6 °F 70% 30.05 in 10.0 mi ENE 4.6 mph - N/A   Mostly Cloudy
6:45 PM 82.4 °F 86.3 °F 69.8 °F 66% 30.05 in 10.0 mi ENE 3.5 mph - N/A   Mostly Cloudy
7:45 PM 82.4 °F 88.2 °F 73.4 °F 74% 30.06 in 10.0 mi Calm Calm - N/A   Mostly Cloudy
8:50 PM 78.8 °F - 73.4 °F 83% 30.07 in 10.0 mi Calm Calm - N/A   Scattered Clouds
9:45 PM 78.8 °F - 73.4 °F 83% 30.09 in 10.0 mi Calm Calm - N/A   Mostly Cloudy
10:09 PM 78.8 °F - 69.8 °F 74% 30.09 in 10.0 mi South 5.8 mph - N/A   Clear
10:27 PM 80.6 °F 83.9 °F 69.8 °F 70% 30.10 in 10.0 mi SSE 6.9 mph - N/A   Clear
10:48 PM 78.8 °F - 71.6 °F 78% 30.10 in 7.0 mi South 4.6 mph - N/A   Clear
11:09 PM 78.8 °F - 71.6 °F 78% 30.10 in 10.0 mi South 5.8 mph - N/A   Clear
11:27 PM 80.6 °F 84.6 °F 71.6 °F 74% 30.09 in 10.0 mi South 5.8 mph - N/A   Clear
11:48 PM 80.6 °F 84.6 °F 71.6 °F 74% 30.10 in 10.0 mi SSW 8.1 mph - N/A   Clear